Location: Arbon
(43.0005°N, 0.7472°E)
Time: 10:52:42
(UTC+00:00)

Daily predictions for brighter satellites

Satellite Brightness Start Highest point End
(mag) Time Altitude Azimuth Time Altitude Azimuth Time Altitude Azimuth
SL-16 R/B 3.2 19:10:29 10° SSE 19:14:50 23° E 19:19:12 10° NE
Okean O Rocket 3.7 19:17:54 10° ENE 19:18:50 11° ENE 19:19:46 10° NE
CZ-4 R/B 1.9 19:20:04 10° SE 19:23:29 35° ENE 19:26:51 10° N
SPOT 5 2.7 19:22:36 10° SSE 19:27:06 66° ENE 19:31:26 10° N
NOSS 3-4 (A) 4.0 19:22:43 10° SW 19:27:52 55° NW 19:33:31 10° NNE
NOSS 3-4 (C) 4.0 19:23:13 10° SW 19:28:24 55° NW 19:34:05 10° NNE
Cosmos 1656 Rocket 4.2 19:27:15 10° NNW 19:32:24 40° ENE 19:37:23 11° SE
Cosmos 1025 Rocket 4.2 19:29:46 10° NNE 19:33:17 24° ENE 19:36:26 12° SE
Helios 1A Rocket 2.7 19:31:31 10° NNE 19:34:32 38° E 19:37:32 10° S
Cosmos 1733 Rocket 3.0 19:30:31 10° S 19:34:50 66° E 19:39:12 10° NNE
CZ-4B R/B 3.8 19:31:21 10° SSE 19:35:01 59° ENE 19:38:50 10° N
Terra 2.6 19:32:16 10° SE 19:36:25 32° ENE 19:40:35 10° N
SJ-6B 3.9 19:33:29 10° S 19:36:57 41° W 19:40:23 10° NNW
Cosmos 2242 Rocket 3.6 19:33:10 10° N 19:37:35 63° E 19:41:55 10° SSE
BREEZE-M DEB (TANK) 3.4 19:35:59 10° NW 19:38:23 32° NNE 19:42:54 10° E
IRAS Rocket 4.2 19:34:06 10° SSE 19:39:33 73° ENE 19:45:02 10° NNW
Gblst 52 Del rocket 4.5 19:34:55 10° WSW 19:40:44 84° NNW 19:47:23 10° ENE
Resurs 01 Rocket 3.8 19:37:13 10° SSW 19:40:56 27° W 19:44:39 10° NW
Cosmos 1821 Rocket 4.0 19:35:09 10° S 19:41:21 69° E 19:47:41 10° NNE
Cosmos 2237 Rocket 2.9 19:36:49 10° SW 19:42:25 59° WNW 19:48:04 10° NNE
Meteor 2-15 4.5 19:37:13 10° S 19:43:17 90° ENE 19:49:26 10° N
Cosmos 2218 Rocket 4.1 19:41:15 10° S 19:47:23 79° W 19:53:35 10° N
CSL-04 Rocket 3.8 19:42:39 10° SSE 19:48:12 85° WSW 19:53:47 10° NNW
Meteor 2-15 Rocket 4.4 19:44:43 10° S 19:50:45 74° E 19:56:51 10° NNE
BREEZE-M DEB (TANK) 4.1 19:49:54 10° WNW 19:51:57 25° N 19:55:12 10° ENE
Cosmos 1346 Rocket 3.2 19:49:44 10° N 19:53:06 36° ENE 19:55:10 19° SE
SL-4 R/B 2.9 19:53:04 10° S 19:56:08 23° SE 19:57:35 19° E
Cosmos 1400 Rocket 2.7 19:52:48 10° SSW 19:56:23 75° WNW 20:00:00 10° N
BREEZE-M DEB (TANK) 3.8 19:53:02 10° SSW 19:56:35 40° ESE 20:06:39 10° NE
OAO 3 Rocket 4.3 19:52:55 10° WSW 19:56:53 28° S 19:59:27 17° SE
Cosmos 1812 0.7 19:56:46 24° SSW 19:57:35 70° W 19:59:14 10° N
Meteor 1-31 Rocket 2.8 19:56:08 10° S 19:59:37 69° WSW 20:03:08 10° NNW
Cosmos 1602 4.4 19:58:30 10° NNE 19:59:37 16° ENE 19:59:37 16° ENE
TIMED 4.5 19:56:51 10° NNW 20:01:08 84° WSW 20:04:49 13° SSE
Cosmos 1943 Rocket 4.1 19:57:36 10° NW 20:02:21 28° WSW 20:07:03 10° SSW
ASTEX 1 4.2 19:59:47 18° SE 20:02:39 33° ENE 20:07:03 10° NNE
Gbstr 26 Del rocket 4.1 19:58:23 10° SSW 20:03:07 30° SE 20:06:31 13° E
USA 59 Rocket 0.1 20:00:37 10° NW 20:04:12 70° SW 20:07:46 17° SSE
Feng Yun 1-1 Rocket 4.2 20:00:07 10° SSE 20:05:38 85° ENE 20:11:04 10° NNW
Cosmos 1869 4.2 20:06:01 23° E 20:06:22 24° E 20:09:16 10° NE
ADEOS 3.6 20:06:32 16° SSE 20:10:40 66° ENE 20:15:51 10° N
Cosmos 2369 Rocket 2.8 20:06:44 10° NNW 20:12:00 40° ENE 20:15:00 23° ESE
USA 186 3.3 20:14:08 14° NE 20:14:08 14° NE 20:14:55 10° NNE
CBERS 1 LM4 rocket 4.2 20:10:01 15° SSE 20:13:56 83° ENE 20:18:44 10° NNW
MOS 1 4.3 20:10:24 11° SSE 20:15:48 90° WSW 20:21:31 10° NNW
SL-08 R/B 3.4 20:11:04 10° NNE 20:15:56 59° E 20:20:44 10° S
Cosmos 2285 Rocket 4.0 20:12:30 10° S 20:18:45 63° ESE 20:25:01 10° NNE
Cosmos 2221 Rocket 3.7 20:16:19 10° N 20:20:39 53° E 20:22:40 29° SE
YAOGAN 11 4.4 20:17:05 10° NNE 20:21:11 43° E 20:23:06 27° SSE
USA 234 3.2 20:14:45 10° NE 20:21:19 76° SE 20:27:52 10° SW
SKYMED 3 4.2 20:19:58 10° NNE 20:23:52 88° ESE 20:27:45 10° SSW
Cosmos 405 Rocket 4.1 20:23:03 10° NNE 20:24:26 17° NE 20:24:26 17° NE
Cosmos 1943 3.8 20:23:24 24° SE 20:25:41 33° ESE 20:30:42 10° NE
Molniya-1 2.9 20:24:31 10° SW 20:27:00 84° NW 20:31:39 10° NE
CZ-4B R/B 4.2 20:27:35 19° ENE 20:27:35 19° ENE 20:29:46 10° NNE
CZ-4B R/B 3.3 20:23:41 16° SSE 20:28:16 84° WSW 20:33:58 10° NNW
Cosmos 2278 Rocket 4.4 20:25:05 10° NW 20:29:15 21° W 20:33:23 10° SSW
SL-8 R/B 4.1 20:26:40 10° W 20:31:20 60° NNW 20:36:02 10° ENE
OAO 2 Rocket 4.1 20:29:09 10° WSW 20:33:44 33° S 20:34:49 30° SSE
SL-08 R/B 4.5 20:28:08 10° N 20:34:19 67° E 20:38:00 26° SSE
Cosmos 1975 Rocket 4.2 20:32:03 10° NNE 20:35:46 25° ENE 20:35:59 25° ENE
ERS-1 Rocket 3.5 20:33:54 14° S 20:38:06 56° W 20:43:03 10° NNW
Cosmos 1674 Rocket 4.3 20:37:59 10° NNW 20:42:11 49° W 20:45:17 17° SSW
Cosmos 2263 4.5 20:37:41 10° NNW 20:43:13 53° ENE 20:45:15 36° ESE
Cosmos 2292 Rocket 3.7 20:41:50 10° NNW 20:45:48 54° W 20:47:05 32° SSW
Okean-O 2.5 20:44:32 44° SSE 20:45:52 77° ENE 20:50:15 10° N
Cosmos 2298 Rocket 4.2 20:42:26 10° SSW 20:47:44 76° WNW 20:53:04 10° NNE
Cosmos 1908 Rocket 3.8 20:45:39 15° SSW 20:49:09 66° W 20:53:27 10° N
Cosmos 44 4.5 20:44:25 10° SW 20:49:17 47° NW 20:54:26 10° NNE
NOSS 2-1 (E) 4.5 20:48:32 10° NW 20:51:58 37° WSW 20:53:26 28° SSW
Okean O Rocket 1.5 20:53:05 46° S 20:54:20 83° WSW 20:58:41 10° NNW
CZ-4B R/B 3.8 20:55:25 41° E 20:56:02 43° ENE 21:00:31 10° N
BREEZE-M DEB (TANK) 4.3 20:51:19 10° WNW 20:56:04 30° SW 20:56:25 29° SW
CZ-4 R/B 3.9 20:55:17 10° SW 20:57:36 16° W 20:59:55 10° NW
Ariane Rocket 3.5 20:57:13 38° E 20:57:54 40° ENE 21:02:35 10° N
SL-16 R/B 3.0 20:53:00 10° SW 20:58:31 52° WNW 21:04:04 10° NNE
Cosmos 1782 Rocket 3.3 20:58:38 60° SSE 20:59:20 79° E 21:03:39 10° N
Cosmos 1934 Rocket 4.0 20:54:46 14° S 21:00:12 82° W 21:06:26 10° N
Geosat 4.2 20:57:18 10° NNE 21:02:17 70° WNW 21:07:14 10° SW
Spot 2 Rocket 3.7 21:03:20 36° S 21:05:17 67° WSW 21:10:18 10° NNW
USA 245 3.8 21:05:18 57° SE 21:06:08 70° ENE 21:11:35 10° N
Cosmos 1269 Rocket 4.1 21:04:24 10° NNW 21:09:36 57° ENE 21:10:20 52° E
ATLAS 5 CENTAUR R/B 3.6 21:07:31 10° N 21:10:13 16° NE 21:11:03 16° NE
Cosmos 1140 Rocket 3.4 21:07:04 10° NNW 21:12:11 65° ENE 21:12:46 60° ESE
Terra 3.5 21:10:46 14° SSW 21:13:55 27° W 21:17:56 10° NW
NOSS 3-1 (C) 4.0 21:12:22 10° NW 21:19:41 87° WSW 21:23:02 42° SSE
Cosmos 967 Rocket 4.5 21:14:27 10° NW 21:20:55 76° WSW 21:22:39 50° SSE
Cosmos 1862 4.4 21:20:44 10° N 21:22:56 34° NNE 21:22:56 34° NNE
Cosmos 1447 Rocket 4.4 21:20:38 10° N 21:26:50 63° E 21:27:42 57° ESE
Cosmos 2058 3.7 21:24:48 10° N 21:27:31 41° NNE 21:27:31 41° NNE
Cosmos 407 Rocket 4.0 21:24:12 10° N 21:28:57 43° ENE 21:28:57 43° ENE
SL-4 R/B 3.6 21:29:28 10° WSW 21:31:15 25° WSW 21:31:15 25° WSW
Cosmos 371 Rocket 4.2 21:29:15 10° N 21:33:16 36° NE 21:33:16 36° NE
COSMOS 2455 3.0 21:34:47 10° NNW 21:40:43 57° NE 21:41:17 55° ENE
SJ 16-02 3.0 21:38:00 10° N 21:40:32 24° NE 21:40:32 24° NE
Cosmos 1315 Rocket 4.1 21:43:33 35° WNW 21:43:33 35° WNW 21:46:42 10° N
SPOT 3 Rocket 3.9 21:48:49 53° WSW 21:49:15 55° W 21:54:20 10° NNW
Gbstr 26 Del rocket 3.7 21:44:22 10° WSW 21:48:40 55° WNW 21:48:40 55° WNW
Cosmos 1605 Rocket 4.3 21:47:33 37° SW 21:49:48 59° W 21:55:53 10° N
Lacrosse 5 rocket 3.7 21:51:52 10° NNW 21:52:47 15° N 21:52:47 15° N
Cosmos 2369 Rocket 3.4 21:51:00 10° NW 21:55:50 31° WSW 21:56:46 29° WSW
SeaSat 1 4.2 21:56:42 21° NE 21:56:47 21° NE 22:00:25 10° N
Cosmos 2173 Rocket 4.1 22:03:21 57° ENE 22:03:21 57° ENE 22:08:41 10° NNE
USA 234 4.4 21:57:59 10° NE 22:04:02 42° NNW 22:10:06 10° W
Cosmos 1603 3.7 22:07:59 75° N 22:07:59 75° N 22:13:16 10° NNE
Cosmos 921 Rocket 4.3 22:03:38 10° NNW 22:06:41 38° NW 22:06:41 38° NW
Cosmos 1943 4.5 22:04:58 13° WSW 22:09:35 38° WNW 22:14:53 10° N
Meteor 2-3 Rocket 4.2 22:09:25 10° N 22:14:03 52° NE 22:14:03 52° NE
NOSS 3-1 (A) 4.0 22:12:07 10° NW 22:19:31 81° SW 22:20:42 68° S
Cosmos 2100 Rocket 4.0 22:26:44 78° NNW 22:26:44 78° NNW 22:32:32 10° N
Cosmos 1656 4.3 22:40:16 10° NNW 22:44:20 52° NNW 22:44:20 52° NNW
ATLAS 3B R/B 4.3 22:45:28 10° NNW 22:52:21 32° NE 22:55:41 23° ENE
ATLAS 5 CENTAUR R/B 3.5 22:48:16 10° NW 22:50:11 27° NW 22:50:11 27° NW
Cosmos 1833 Rocket 4.1 23:01:17 31° NE 23:01:17 31° NE 23:04:11 10° NNE
Cosmos 1725 Rocket 4.3 23:08:52 61° NW 23:08:52 61° NW 23:14:23 10° N
Cosmos 2233 Rocket 4.4 23:18:32 61° N 23:18:32 61° N 23:23:38 10° N
SJ 16-02 4.0 23:16:10 10° NW 23:17:02 14° NW 23:17:02 14° NW
ATLAS 2AS CENTAUR R/B 2.9 23:25:29 65° NNE 23:25:29 65° NNE 23:31:13 10° NE
CZ-2C R/B 4.1 23:29:07 32° NE 23:29:07 32° NE 23:32:52 10° N
SeaSat 1 4.2 23:36:18 28° NW 23:36:18 28° NW 23:38:37 10° NNW
ACS3 Solar Sail 3.7 23:41:52 10° NE 23:44:47 17° ENE 23:44:47 17° ENE
Cosmos 1697 Rocket 3.8 23:43:35 10° NNW 23:47:06 40° NNW 23:47:06 40° NNW
